Weather History for Warrensburg, MO

Change the Weather History Date:

Sunday, February 16, 2014

  Actual Average (KSZL) Record (KSZL)
Temperature  
Mean Temperature - -  
Max Temperature - 44 °F 61 °F (2011)
Min Temperature - 28 °F -5 °F (2007)
Moisture  
Dew Point -    
Average Humidity    
Maximum Humidity    
Minimum Humidity    
Precipitation  
Precipitation 0.00 in - - ()
Sea Level Pressure  
Sea Level Pressure 30.09 in    
Wind  
Wind Speed 7 mph (NE)    
Max Wind Speed 12 mph    
Max Gust Speed -    
Visibility 10 miles    
Events      
Averages and records for this station are not official NWS values.
T = Trace of Precipitation, MM = Missing Value Source: NWS Daily Summary

Daily Weather History Graph

Daily Weather History Graph

Search for Another Location

Airport:

Trip Planner

Search our weather history database for the weather conditions in past years. The results will help you decide how hot, cold, wet, or windy it might be!

Date:

Astronomy

Feb. 16, 2014 Rise Set
Actual Time 7:05 AM CST 5:54 PM CST
Civil Twilight 6:37 AM CST 6:21 PM CST
Nautical Twilight 6:06 AM CST 6:52 PM CST
Astronomical Twilight 5:35 AM CST 7:23 PM CST
Moon 7:49 PM CST (2/16) 7:36 AM CST (2/16)
Length of Visible Light 11h 43m
Length of Day
10h 49m
Full, 97% of the Moon is Illuminated
Feb 16
Full
Feb 22
Last Quarter
Mar 1
New
Mar 8
First Quarter
Mar 16
Full

Hourly Weather History & Observations

Time (CST) Temp. Dew Point Humidity Pressure Visibility Wind Dir Wind Speed Gust Speed Precip Events Conditions
12:15 AM - - N/A% 30.04 in 10.0 mi NNW 6.9 mph - N/A   Clear
12:35 AM - - N/A% 30.05 in 10.0 mi NW 3.5 mph - N/A   Clear
12:55 AM - - N/A% 30.05 in 10.0 mi West 3.5 mph - N/A   Clear
1:15 AM - - N/A% 30.06 in 10.0 mi West 4.6 mph - N/A   Clear
1:35 AM - - N/A% 30.05 in 10.0 mi NNW 4.6 mph - N/A   Clear
1:55 AM - - N/A% 30.06 in 10.0 mi NW 4.6 mph - N/A   Clear
2:15 AM - - N/A% 30.07 in 10.0 mi NNW 5.8 mph - N/A   Clear
2:35 AM - - N/A% 30.07 in 10.0 mi NNW 5.8 mph - N/A   Clear
2:55 AM - - N/A% 30.08 in 10.0 mi NNW 5.8 mph - N/A   Clear
3:15 AM - - N/A% 30.08 in 10.0 mi NNW 6.9 mph - N/A   Clear
3:35 AM - - N/A% 30.09 in 10.0 mi NNW 6.9 mph - N/A   Clear
3:55 AM - - N/A% 30.09 in 10.0 mi NNW 6.9 mph - N/A   Clear
4:15 AM - - N/A% 30.10 in 10.0 mi WNW 3.5 mph - N/A   Clear
4:35 AM - - N/A% 30.09 in 10.0 mi NNW 5.8 mph - N/A   Scattered Clouds
4:55 AM - - N/A% 30.11 in 10.0 mi NW 4.6 mph - N/A   Mostly Cloudy
5:15 AM - - N/A% 30.11 in 10.0 mi WNW 3.5 mph - N/A   Overcast
5:35 AM - - N/A% 30.12 in 10.0 mi WNW 4.6 mph - N/A   Overcast
5:55 AM - - N/A% 30.12 in 10.0 mi NNW 8.1 mph - N/A   Overcast
6:15 AM - - N/A% 30.13 in 10.0 mi NNW 4.6 mph - N/A   Overcast
6:35 AM - - N/A% 30.13 in 10.0 mi NNW 9.2 mph - N/A   Overcast
6:55 AM - - N/A% 30.13 in 10.0 mi North 9.2 mph - N/A   Overcast
7:15 AM - - N/A% 30.14 in 10.0 mi North 6.9 mph - N/A   Overcast
7:35 AM - - N/A% 30.16 in 10.0 mi North 9.2 mph - N/A   Overcast
7:55 AM - - N/A% 30.16 in 10.0 mi North 6.9 mph - N/A   Overcast
8:15 AM - - N/A% 30.18 in 10.0 mi North 10.4 mph - N/A   Overcast
8:35 AM - - N/A% 30.18 in 10.0 mi NNE 10.4 mph - N/A   Overcast
8:55 AM - - N/A% 30.18 in 10.0 mi NNE 9.2 mph - N/A   Overcast
9:35 AM - - N/A% 30.19 in 10.0 mi NE 6.9 mph - N/A   Overcast
9:55 AM - - N/A% 30.20 in 10.0 mi ENE 9.2 mph - N/A   Overcast
10:15 AM - - N/A% 30.23 in 10.0 mi Calm Calm - N/A   Overcast
10:35 AM - - N/A% 30.22 in 10.0 mi North 4.6 mph - N/A   Overcast
10:55 AM - - N/A% 30.22 in 10.0 mi NE 8.1 mph - N/A   Overcast
11:15 AM - - N/A% 30.22 in 10.0 mi NE 5.8 mph - N/A   Overcast
11:35 AM - - N/A% 30.21 in 10.0 mi NE 6.9 mph - N/A   Overcast
11:55 AM - - N/A% 30.21 in 10.0 mi ENE 8.1 mph - N/A   Overcast
12:15 PM - - N/A% 30.19 in 10.0 mi NE 6.9 mph - N/A   Overcast
12:35 PM - - N/A% 30.18 in 10.0 mi ENE 9.2 mph - N/A   Mostly Cloudy
12:55 PM - - N/A% 30.17 in 10.0 mi East 9.2 mph - N/A   Scattered Clouds
1:15 PM - - N/A% 30.15 in 10.0 mi East 8.1 mph - N/A   Scattered Clouds
1:35 PM - - N/A% 30.13 in 10.0 mi East 9.2 mph - N/A   Scattered Clouds
1:55 PM - - N/A% 30.13 in 10.0 mi East 5.8 mph - N/A   Scattered Clouds
2:15 PM - - N/A% 30.12 in 10.0 mi East 8.1 mph - N/A   Clear
2:35 PM - - N/A% 30.12 in 10.0 mi East 6.9 mph - N/A   Clear
2:55 PM - - N/A% 30.11 in 10.0 mi East 10.4 mph - N/A   Clear
3:15 PM - - N/A% 30.10 in 10.0 mi East 10.4 mph - N/A   Clear
3:35 PM - - N/A% 30.10 in 10.0 mi East 10.4 mph - N/A   Clear
3:55 PM - - N/A% 30.10 in 10.0 mi East 9.2 mph - N/A   Clear
4:15 PM - - N/A% 30.09 in 10.0 mi ENE 9.2 mph - N/A   Clear
4:35 PM - - N/A% 30.08 in 10.0 mi East 8.1 mph - N/A   Clear
4:55 PM - - N/A% 30.07 in 10.0 mi East 9.2 mph - N/A   Clear
5:15 PM - - N/A% 30.06 in 10.0 mi East 6.9 mph - N/A   Clear
5:35 PM - - N/A% 30.05 in 10.0 mi East 5.8 mph - N/A   Clear
5:55 PM - - N/A% 30.06 in 7.0 mi East 5.8 mph - N/A   Clear
6:15 PM - - N/A% 30.06 in 10.0 mi East 9.2 mph - N/A   Clear
6:35 PM - - N/A% 30.06 in 10.0 mi East 9.2 mph - N/A   Clear
6:55 PM - - N/A% 30.05 in 10.0 mi ENE 11.5 mph - N/A   Clear
7:35 PM - - N/A% 30.03 in 10.0 mi East 11.5 mph - N/A   Clear
7:55 PM - - N/A% 30.03 in 10.0 mi East 11.5 mph - N/A   Clear
8:15 PM - - N/A% 30.02 in 10.0 mi East 10.4 mph - N/A   Scattered Clouds
8:35 PM - - N/A% 30.02 in 10.0 mi East 9.2 mph - N/A   Scattered Clouds
8:55 PM - - N/A% 30.01 in 10.0 mi East 11.5 mph - N/A   Clear
9:15 PM - - N/A% 30.00 in 10.0 mi East 10.4 mph - N/A   Mostly Cloudy
9:35 PM - - N/A% 30.00 in 10.0 mi East 10.4 mph - N/A   Overcast
9:55 PM - - N/A% 30.00 in 10.0 mi East 8.1 mph - N/A   Overcast
10:15 PM - - N/A% 30.00 in 10.0 mi East 6.9 mph - N/A   Overcast
10:35 PM - - N/A% 29.98 in 10.0 mi East 9.2 mph - N/A   Overcast
10:55 PM - - N/A% 29.97 in 10.0 mi East 8.1 mph - N/A   Overcast
11:15 PM - - N/A% 29.94 in 10.0 mi East 10.4 mph - N/A   Overcast
11:35 PM - - N/A% 29.92 in 10.0 mi East 10.4 mph - N/A   Overcast
11:55 PM - - N/A% 29.92 in 10.0 mi East 10.4 mph - N/A   Overcast